Istanbul, Turkey

7:52 AM +03 on March 25, 2017 (GMT +0300)
Istanbul

Weather History for 17060 - February, 2013

Change the Weather History Date:

Wednesday, February 6, 2013

  Actual Average Record
Temperature  
Mean Temperature 46 °F -  
Max Temperature 51 °F 48 °F - ()
Min Temperature 41 °F 37 °F - ()
Degree Days  
Heating Degree Days 19    
Moisture  
Dew Point 44 °F    
Average Humidity 91    
Maximum Humidity 100    
Minimum Humidity 71    
Precipitation  
Precipitation 0.00 in - - ()
Sea Level Pressure  
Sea Level Pressure 29.77 in    
Wind  
Wind Speed 5 mph ()    
Max Wind Speed 12 mph    
Max Gust Speed -    
Visibility 2.5 miles    
Events Fog    
T = Trace of Precipitation, MM = Missing Value Source: Averaged Metar Reports

Daily Weather History Graph

Daily Weather History Graph

Search for Another Location

Airport or City:

Trip Planner

Search our weather history database for the weather conditions in past years. The results will help you decide how hot, cold, wet, or windy it might be!

Date:

Astronomy

Feb. 06, 2013 Rise Set
Actual Time 7:10 AM EET 5:28 PM EET
Civil Twilight 6:41 AM EET 5:56 PM EET
Nautical Twilight 6:08 AM EET 6:29 PM EET
Astronomical Twilight 5:36 AM EET 7:01 PM EET
Moon 3:34 AM EET (2/6) 1:24 PM EET (2/6)
Length of Visible Light 11h 15m
Length of Day
10h 17m
Waning Crescent, 20% of the Moon is Illuminated
Feb 6
Waning Crescent
Feb 10
New
Feb 17
First Quarter
Feb 25
Full
Mar 4
Last Quarter

Hourly Weather History & Observations

Time (EET) Temp. Windchill Dew Point Humidity Pressure Visibility Wind Dir Wind Speed Gust Speed Precip Events Conditions
12:20 AM 42.8 °F 36.6 °F 42.8 °F 100% 29.86 in 2.2 mi NNW 11.5 mph - N/A   Partly Cloudy
12:50 AM 42.8 °F 38.0 °F 42.8 °F 100% 29.86 in 2.5 mi NNW 8.1 mph - N/A   Scattered Clouds
1:20 AM 42.8 °F 39.3 °F 42.8 °F 100% 29.86 in 2.5 mi North 5.8 mph - N/A   Scattered Clouds
1:50 AM 42.8 °F 40.1 °F 42.8 °F 100% 29.86 in 2.5 mi North 4.6 mph - N/A   Scattered Clouds
2:00 AM 43 °F - 43 °F 98% 29.86 in 2 mi North 4.6 mph - -   Mist
2:20 AM 42.8 °F 40.1 °F 42.8 °F 100% 29.83 in 2.5 mi NNW 4.6 mph - N/A   Scattered Clouds
2:50 AM 42.8 °F - 42.8 °F 100% 29.83 in 2.5 mi NW 2.3 mph - N/A   Scattered Clouds
3:20 AM 42.8 °F - 42.8 °F 100% 29.83 in 2.5 mi NW 2.3 mph - N/A   Scattered Clouds
3:50 AM 42.8 °F - 42.8 °F 100% 29.80 in 2.5 mi Variable 2.3 mph - N/A   Scattered Clouds
4:20 AM 42.8 °F - 42.8 °F 100% 29.80 in 2.2 mi Variable 2.3 mph - N/A   Scattered Clouds
4:50 AM 42.8 °F - 42.8 °F 100% 29.80 in - Variable 1.2 mph - N/A   Scattered Clouds
5:20 AM 42.8 °F - 42.8 °F 100% 29.80 in 1.0 mi NNW 2.3 mph - N/A   Scattered Clouds
5:50 AM 42.8 °F 40.1 °F 42.8 °F 100% 29.80 in 1.0 mi North 4.6 mph - N/A   Scattered Clouds
6:20 AM 44.6 °F 42.2 °F 44.6 °F 100% 29.80 in 1.6 mi NNW 4.6 mph - N/A   Scattered Clouds
6:50 AM 44.6 °F - 44.6 °F 100% 29.80 in 1.3 mi North 2.3 mph - N/A   Scattered Clouds
7:20 AM 44.6 °F - 44.6 °F 100% 29.80 in 1.0 mi Calm Calm - N/A   Scattered Clouds
7:50 AM 44.6 °F 43.1 °F 44.6 °F 100% 29.80 in 1.0 mi South 3.5 mph - N/A   Scattered Clouds
8:00 AM 45 °F - 45 °F 100% 29.81 in 1 mi South 3.5 mph - -   Mist
8:20 AM 44.6 °F 43.1 °F 44.6 °F 100% 29.80 in 1.0 mi South 3.5 mph - N/A   Scattered Clouds
8:50 AM - - - N/A% 29.80 in 0.7 mi SSW 3.5 mph - N/A Fog Patches of Fog
9:20 AM 46.4 °F 42.9 °F 46.4 °F 100% 29.80 in 1.2 mi SSW 6.9 mph - N/A   Mostly Cloudy
9:50 AM 46.4 °F 43.5 °F 46.4 °F 100% 29.80 in 1.6 mi SW 5.8 mph - N/A   Mostly Cloudy
10:20 AM 46.4 °F 42.9 °F 46.4 °F 100% 29.80 in 2.5 mi SW 6.9 mph - N/A   Scattered Clouds
10:50 AM 48.2 °F - 44.6 °F 87% 29.77 in 3.7 mi SW 10.4 mph - N/A   Scattered Clouds
11:20 AM 48.2 °F - 44.6 °F 87% 29.77 in 3.7 mi SSW 9.2 mph - N/A   Scattered Clouds
11:50 AM 48.2 °F - 44.6 °F 87% 29.77 in 3.7 mi SW 9.2 mph - N/A   Scattered Clouds
12:20 PM 48.2 °F - 44.6 °F 87% 29.77 in 2.5 mi SW 6.9 mph - N/A   Scattered Clouds
12:50 PM 48.2 °F - 44.6 °F 87% 29.74 in 3.7 mi WSW 6.9 mph - N/A   Scattered Clouds
1:20 PM 48.2 °F - 42.8 °F 82% 29.74 in 3.7 mi WSW 6.9 mph - N/A   Partly Cloudy
1:50 PM 50.0 °F - 44.6 °F 82% 29.74 in 3.7 mi West 8.1 mph - N/A   Partly Cloudy
2:00 PM 49 °F - 42 °F 71% 29.75 in 4 mi West 8.1 mph - -   Mist
2:20 PM 50.0 °F - 44.6 °F 82% 29.74 in 3.7 mi SW 5.8 mph - N/A   Unknown
2:50 PM 50.0 °F - 44.6 °F 82% 29.71 in 3.7 mi SW 4.6 mph - N/A   Unknown
3:20 PM 50.0 °F - 44.6 °F 82% 29.74 in 3.7 mi SW 5.8 mph - N/A   Unknown
3:50 PM 50.0 °F - 42.8 °F 76% 29.71 in 3.7 mi SW 5.8 mph - N/A   Unknown
4:20 PM 50.0 °F - 42.8 °F 76% 29.71 in 3.7 mi SW 4.6 mph - N/A   Unknown
4:50 PM 48.2 °F - 42.8 °F 82% 29.71 in 3.7 mi SSW 4.6 mph - N/A   Unknown
5:20 PM 48.2 °F - 42.8 °F 82% 29.71 in 3.7 mi South 3.5 mph - N/A   Unknown
5:50 PM 46.4 °F 44.3 °F 44.6 °F 93% 29.71 in 2.8 mi SSE 4.6 mph - N/A   Scattered Clouds
6:20 PM 46.4 °F 45.2 °F 44.6 °F 93% 29.71 in 2.2 mi South 3.5 mph - N/A   Scattered Clouds
6:50 PM 46.4 °F - 46.4 °F 100% 29.71 in 2.2 mi Variable 2.3 mph - N/A   Scattered Clouds
7:20 PM 46.4 °F - 46.4 °F 100% 29.71 in 2.5 mi WSW 2.3 mph - N/A   Mist
7:50 PM 46.4 °F - 46.4 °F 100% 29.71 in 2.5 mi Calm Calm - N/A   Mist
8:00 PM 46 °F - 46 °F 98% 29.74 in 2 mi Calm Calm - -   Mist
8:20 PM 48.2 °F - 46.4 °F 93% 29.71 in 2.5 mi Calm Calm - N/A   Mist
8:50 PM 48.2 °F - 42.8 °F 82% 29.71 in 2.5 mi ESE 2.3 mph - N/A   Mist
9:20 PM 48.2 °F - 42.8 °F 82% 29.71 in 2.5 mi Variable 2.3 mph - N/A   Mist
9:50 PM 48.2 °F - 42.8 °F 82% 29.71 in 2.5 mi Variable 2.3 mph - N/A   Mist
10:20 PM 50.0 °F - 42.8 °F 76% 29.71 in 2.5 mi Variable 1.2 mph - N/A   Mist
10:50 PM 50.0 °F - 42.8 °F 76% 29.71 in 2.5 mi Variable 2.3 mph - N/A   Mist
11:20 PM 48.2 °F - 42.8 °F 82% 29.71 in 2.5 mi SSE 2.3 mph - N/A   Mist
11:50 PM 50.0 °F - 42.8 °F 76% 29.71 in 2.5 mi SE 2.3 mph - N/A   Mist